Location: *
(46.3500°N, 10.9000°E)
Time: 22:23:36
(UTC+00:00)

A-11 Canister half - Pass Details

Date: 22 April 2021
Orbit: 1526 x 1682 km, 47.3° (Epoch: 13 May)

Event Time Altitude Azimuth Distance (km) Brightness Sun altitude
Rises 18:47:19 0° 287° (WNW) 4,928 14.0 -6.2°
Reaches altitude 10° 18:50:29 10° 286° (WNW) 3,945 12.9 -6.7°
Maximum altitude 19:00:36 74° 204° (SSW) 1,736 9.3 -8.3°
Enters shadow 19:10:17 11° 122° (ESE) 3,803 10.4 -9.7°
Drops below altitude 10° 19:10:37 10° 122° (ESE) 3,903 - -9.8°
Sets 19:13:44 0° 121° (ESE) 4,873 - -10.2°
